Snowfall_Accumulation
0.0 0.0 0.0 0.0 0.0 0.0 0.0 0.0 0.0 0.0 0.0 0.0 0.0 0.0 0.0 0.0 0.0 0.0 0.0 0.0 0.0 0.0 0.0 0.0 0.0 0.0 0.0 0.0 0.0 0.0 0.0 0.0 0.0 0.0 0.0 0.0 0.0 0.0 0.0 0.0 0.0 0.0 0.0 0.0
0.0 0.0 0.0 0.0 0.0 0.0 0.0 0.0 0.0 0.0 0.0 0.0 0.0 0.0 0.0 0.0 0.0 0.0 0.0 0.0 0.0 0.0 0.0 0.0 0.0 0.0 0.0 0.0 0.0 0.0 0.0 0.0 0.0 0.0 0.0 0.0 0.0 0.0 0.0 0.0 0.0 0.0 0.0 0.0
0.0 0.0 0.0 0.0 0.0 0.0 0.0 0.0 0.0 0.0 0.0 0.0 0.0 0.0 0.0 0.0 0.0 0.0 0.0 0.0 0.0 0.0 0.0 0.0 0.0 0.0 0.0 0.0 0.0 0.0 0.0 0.0 0.0 0.0 0.0 0.0 0.0 0.0 0.0 0.0 0.0 0.0 0.0 0.0
0.0 0.0 0.0 0.0 0.0 0.0 0.0 0.0 0.0 0.0 0.0 0.0 0.0 0.0 0.0 0.0 0.0 0.0 0.0 0.0 0.0 0.0 0.0 0.0 0.0 0.0 0.0 0.0 0.0 0.0 0.0 0.0 0.0 0.0 0.0 0.0 0.0 0.0 0.0 0.0 0.0 0.0 0.0 0.0
0.0 0.0 0.0 0.0 0.0 0.0 0.0 0.0 0.0 0.0 0.0 0.0 0.0 0.0 0.0 0.0 0.0 0.0 0.0 0.0 0.0 0.0 0.0 0.0 0.0 0.0 0.0 0.0 0.0 0.0 0.0 0.0 0.0 0.0 0.0 0.0 0.0 0.0 0.0 0.0 0.0 0.0 0.0 0.0
0.0 0.0 0.0 0.0 0.0 0.0 0.0 0.0 0.0 0.0 0.0 0.3 0.0 0.0 0.0 0.0 0.0 0.0 0.0 0.0 0.0 0.0 0.0 0.0 0.0 0.0 0.0 0.0 0.0 0.0 0.0 0.0 0.0 0.0 0.0 0.0 0.0 0.0 0.0 0.0 0.0 0.0 0.0 0.0
0.0 0.0 0.0 0.0 0.0 0.0 0.0 0.0 0.4 0.8 2.2 1.1 0.0 0.2 0.0 0.0 0.0 0.0 0.0 0.0 0.0 0.0 0.0 0.0 0.0 0.0 0.0 0.0 0.0 0.0 0.0 0.0 0.0 0.0 0.0 0.0 0.0 0.0 0.0 0.0 0.0 0.0 0.0 0.0
0.0 0.0 0.0 0.0 0.0 0.0 0.0 0.0 0.8 3.2 1.8 0.7 0.3 0.3 0.0 0.0 0.0 0.0 0.0 0.0 0.0 0.0 0.0 0.0 0.0 0.0 0.0 0.0 0.0 0.0 0.0 0.0 0.0 0.0 0.0 0.0 0.0 0.0 0.0 0.0 0.0 0.0 0.0 0.0
0.0 0.0 0.0 0.0 0.0 0.0 0.0 0.0 0.0 0.5 3.5 2.8 0.0 0.0 0.0 0.0 0.0 0.0 0.0 0.0 0.0 0.0 0.0 0.0 0.0 0.0 0.0 0.0 0.0 0.0 0.0 0.0 0.0 0.0 0.0 0.0 0.0 0.0 0.0 0.0 0.0 0.0 0.0 0.0
0.0 0.1 0.0 0.0 0.0 0.0 0.0 0.0 0.4 0.4 5.5 4.5 0.0 0.0 0.0 0.0 0.0 0.0 0.0 0.0 0.0 0.0 0.0 0.0 0.0 0.0 0.0 0.0 0.0 0.0 0.0 0.0 0.0 0.0 0.0 0.0 0.0 0.0 0.0 0.0 0.0 0.0 0.0 0.0
0.0 0.1 0.0 0.0 0.0 0.0 0.0 0.0 0.0 0.0 0.6 4.4 2.8 0.1 0.0 0.0 0.0 0.0 0.0 0.0 0.0 0.0 0.0 0.0 0.0 0.0 0.0 0.0 0.0 0.0 0.0 0.0 0.0 0.0 0.0 0.0 0.0 0.0 0.0 0.0 0.0 0.0 0.0 0.0
0.0 0.0 2.7 0.0 0.0 0.0 0.0 0.0 0.0 1.1 0.8 0.7 1.3 2.1 0.0 0.0 0.0 0.0 0.0 0.0 0.0 0.0 0.0 0.0 0.0 0.0 0.0 0.0 0.0 0.0 0.0 0.0 0.0 0.0 0.0 0.0 0.0 0.0 0.0 0.0 0.0 0.0 0.0 0.0
0.0 0.8 6.9 2.0 0.0 0.0 0.0 0.0 0.0 0.0 0.8 3.8 7.0 2.2 0.0 0.0 0.0 0.0 0.0 0.0 0.0 0.0 0.0 0.0 0.0 0.0 0.0 0.0 0.0 0.0 0.0 0.0 0.0 0.0 0.0 0.0 0.0 0.0 0.0 0.0 0.0 0.0 0.0 0.0
nan 0.4 1.3 2.4 0.3 0.0 0.5 0.1 0.2 0.6 6.0 2.7 2.3 0.9 0.0 0.0 0.0 0.0 0.0 0.0 0.0 0.0 0.0 0.0 0.0 0.0 0.0 0.0 0.0 0.0 0.0 0.0 0.0 0.0 0.0 0.0 0.0 0.0 0.0 0.0 0.0 0.0 0.0 0.0
0.0 3.5 0.1 0.1 0.0 0.2 0.4 0.3 0.0 0.0 0.1 1.7 0.2 0.3 0.0 0.0 0.2 0.0 0.0 0.0 0.0 0.0 0.0 0.0 0.0 0.0 0.0 0.0 0.0 0.0 0.0 0.0 0.0 0.0 0.0 0.0 0.0 0.0 0.1 0.3 0.4 0.4 0.3 0.0
0.1 4.7 0.7 3.6 0.1 0.1 0.6 0.1 0.1 0.2 0.2 0.1 0.0 0.0 0.0 0.0 0.0 0.0 0.0 0.0 0.0 0.0 0.0 0.0 0.0 0.0 0.0 0.0 0.0 0.0 0.0 0.0 0.0 0.0 0.0 0.0 0.8 1.1 1.3 1.1 0.8 0.5 0.5 0.4
0.4 2.5 8.6 14.1 0.7 0.6 7.1 0.9 0.0 0.0 0.0 0.0 0.3 0.6 0.8 0.4 0.2 0.2 0.1 0.1 0.0 0.0 0.0 0.0 0.0 0.0 0.0 0.0 0.0 0.0 0.0 0.2 1.1 1.7 2.5 2.2 1.8 1.8 1.4 1.0 0.9 0.7 0.6 0.6
0.7 3.9 7.4 17.9 9.3 24.1 2.0 0.0 0.0 0.1 0.5 0.7 1.2 1.9 1.0 0.3 0.0 0.0 0.0 0.0 0.0 0.0 0.0 0.0 0.0 0.0 0.0 0.0 0.0 0.0 0.3 0.7 1.0 2.1 3.1 2.3 1.5 2.6 1.4 1.2 1.2 0.8 0.6 0.8
0.1 0.0 10.2 19.0 18.0 0.9 0.1 0.0 0.0 0.1 0.2 0.6 1.0 0.5 0.2 0.0 0.0 0.0 0.0 0.0 0.0 0.0 0.0 0.0 0.0 0.0 0.0 0.0 0.0 0.5 0.5 0.5 0.6 0.7 1.2 1.3 2.0 3.0 1.6 3.6 1.7 1.3 2.1 1.4
0.0 0.0 0.6 12.3 19.9 15.4 0.2 0.0 0.0 0.0 2.4 1.6 3.0 1.9 1.0 0.2 0.7 0.1 0.0 0.0 0.0 0.0 0.0 0.0 0.0 0.0 0.0 0.0 0.0 0.6 0.7 1.0 0.9 0.7 0.7 0.9 1.9 4.3 3.5 2.0 3.0 3.4 3.2 3.0
5.9 10.3 13.0 13.9 17.9 5.9 0.9 0.5 0.0 6.7 5.3 1.6 1.2 1.2 0.8 1.0 0.3 0.1 0.0 0.0 0.0 0.0 0.1 0.0 0.0 0.0 0.0 0.3 0.7 0.7 0.7 1.0 1.2 1.5 1.5 1.8 2.0 4.6 2.9 3.4 2.8 4.0 4.5 2.4
1.3 8.8 19.5 13.1 13.4 15.7 0.1 0.1 1.3 1.2 0.4 0.7 0.3 0.1 0.1 0.0 0.0 0.0 0.0 0.0 0.0 0.0 0.0 0.0 0.0 0.0 0.0 0.8 1.2 1.2 0.9 1.1 1.7 2.2 2.5 3.1 5.1 4.7 4.7 8.4 5.2 7.0 6.2 6.0
5.1 1.6 8.7 3.6 4.6 0.1 0.0 0.3 0.1 0.1 1.0 0.5 0.2 0.1 0.0 0.1 0.0 0.0 0.0 0.0 0.0 0.0 0.0 0.0 1.5 1.4 0.0 1.8 2.1 2.6 1.7 2.0 2.8 5.3 7.3 7.3 6.5 6.5 6.5 9.4 6.1 8.5 7.1 8.3
0.5 0.0 1.5 2.2 0.0 0.0 0.0 0.0 0.0 0.1 0.1 0.1 0.1 0.1 0.1 0.1 0.0 0.0 0.0 0.1 0.0 1.0 1.4 1.6 2.3 2.7 2.5 2.3 2.8 3.3 2.9 3.1 10.0 10.1 5.4 4.4 5.7 4.2 5.7 7.6 8.7 12.3 9.5 7.6
0.4 0.4 0.9 1.4 0.0 0.0 0.0 0.0 0.0 0.0 0.0 0.0 0.0 0.0 0.0 0.0 0.0 0.0 0.8 1.1 0.7 1.2 1.4 2.0 2.7 2.6 2.4 2.1 2.5 3.7 3.7 4.6 6.8 7.1 4.0 5.6 7.8 8.8 5.4 5.0 8.1 6.9 4.4 9.6
0.0 0.0 0.2 2.2 0.0 0.0 0.0 0.0 0.0 0.0 0.0 0.2 0.3 0.4 0.4 0.5 0.5 0.5 0.9 0.6 0.8 1.2 1.5 2.0 2.4 2.2 2.7 3.4 3.9 5.1 6.7 6.5 6.6 4.1 6.0 5.8 5.8 5.0 4.5 4.6 4.6 nan nan nan
Water_Equivalent
0.00 0.00 0.00 0.00 0.00 0.00 0.00 0.00 0.00 0.00 0.00 0.00 0.00 0.00 0.00 0.00 0.00 0.00 0.00 0.00 0.00 0.00 0.00 0.00 0.00 0.00 0.00 0.00 0.00 0.00 0.00 0.00 0.00 0.00 0.00 0.00 0.00 0.00 0.00 0.00 0.00 0.00 0.00 0.00
0.00 0.00 0.00 0.00 0.00 0.00 0.00 0.00 0.00 0.00 0.00 0.00 0.00 0.00 0.00 0.00 0.00 0.00 0.00 0.00 0.00 0.00 0.00 0.00 0.00 0.00 0.00 0.00 0.00 0.00 0.00 0.00 0.00 0.00 0.00 0.00 0.00 0.00 0.00 0.00 0.00 0.00 0.00 0.00
0.00 0.00 0.00 0.00 0.00 0.00 0.00 0.00 0.00 0.00 0.00 0.00 0.00 0.00 0.00 0.00 0.00 0.00 0.00 0.00 0.00 0.00 0.00 0.00 0.00 0.00 0.00 0.00 0.00 0.00 0.00 0.00 0.00 0.00 0.00 0.00 0.00 0.00 0.00 0.00 0.00 0.00 0.00 0.00
0.00 0.00 0.00 0.00 0.00 0.00 0.00 0.00 0.00 0.00 0.00 0.00 0.00 0.00 0.00 0.00 0.00 0.00 0.00 0.00 0.00 0.00 0.00 0.00 0.00 0.00 0.00 0.00 0.00 0.00 0.00 0.00 0.00 0.00 0.00 0.00 0.00 0.00 0.00 0.00 0.00 0.00 0.00 0.00
0.00 0.00 0.00 0.00 0.00 0.00 0.00 0.00 0.00 0.00 0.00 0.00 0.00 0.00 0.00 0.00 0.00 0.00 0.00 0.00 0.00 0.00 0.00 0.00 0.00 0.00 0.00 0.00 0.00 0.00 0.00 0.00 0.00 0.00 0.00 0.00 0.00 0.00 0.00 0.00 0.00 0.00 0.00 0.00
0.00 0.00 0.00 0.00 0.00 0.00 0.00 0.00 0.00 0.00 0.00 0.05 0.00 0.00 0.00 0.00 0.00 0.00 0.00 0.00 0.00 0.00 0.00 0.00 0.00 0.00 0.00 0.00 0.00 0.00 0.00 0.00 0.00 0.00 0.00 0.00 0.00 0.00 0.00 0.00 0.00 0.00 0.00 0.00
0.00 0.00 0.00 0.00 0.00 0.00 0.00 0.00 0.07 0.13 0.35 0.18 0.00 0.03 0.00 0.00 0.00 0.00 0.00 0.00 0.00 0.00 0.00 0.00 0.00 0.00 0.00 0.00 0.00 0.00 0.00 0.00 0.00 0.00 0.00 0.00 0.00 0.00 0.00 0.00 0.00 0.00 0.00 0.00
0.00 0.00 0.00 0.00 0.00 0.00 0.00 0.00 0.14 0.43 0.28 0.13 0.05 0.05 0.01 0.00 0.00 0.00 0.00 0.00 0.00 0.00 0.00 0.00 0.00 0.00 0.00 0.00 0.00 0.00 0.00 0.00 0.00 0.00 0.00 0.00 0.00 0.00 0.00 0.00 0.00 0.00 0.00 0.00
0.00 0.00 0.00 0.00 0.00 0.00 0.00 0.00 0.00 0.07 0.49 0.43 0.00 0.00 0.00 0.00 0.00 0.00 0.00 0.00 0.00 0.00 0.00 0.00 0.00 0.00 0.00 0.00 0.00 0.00 0.00 0.00 0.00 0.00 0.00 0.00 0.00 0.00 0.00 0.00 0.00 0.00 0.00 0.00
0.00 0.02 0.00 0.00 0.00 0.00 0.00 0.00 0.06 0.06 0.69 0.51 0.00 0.00 0.00 0.00 0.00 0.00 0.00 0.00 0.00 0.00 0.00 0.00 0.00 0.00 0.00 0.00 0.00 0.00 0.00 0.00 0.00 0.00 0.00 0.00 0.00 0.00 0.00 0.00 0.00 0.00 0.00 0.00
0.00 0.02 0.00 0.00 0.00 0.00 0.00 0.00 0.00 0.00 0.09 0.59 0.38 0.02 0.00 0.00 0.00 0.00 0.00 0.00 0.00 0.00 0.00 0.00 0.00 0.00 0.00 0.00 0.00 0.00 0.00 0.00 0.00 0.00 0.00 0.00 0.00 0.00 0.00 0.00 0.00 0.00 0.00 0.00
0.00 0.00 0.46 0.00 0.00 0.00 0.00 0.00 0.00 0.19 0.12 0.12 0.24 0.30 0.00 0.00 0.00 0.00 0.00 0.00 0.00 0.00 0.00 0.00 0.00 0.00 0.00 0.00 0.00 0.00 0.00 0.00 0.00 0.00 0.00 0.00 0.00 0.00 0.00 0.00 0.00 0.00 0.00 0.00
0.00 0.18 1.05 0.33 0.00 0.00 0.00 0.00 0.00 0.00 0.15 0.56 0.88 0.32 0.00 0.00 0.00 0.00 0.00 0.00 0.00 0.00 0.00 0.00 0.00 0.00 0.00 0.00 0.00 0.00 0.00 0.00 0.00 0.00 0.00 0.00 0.00 0.00 0.00 0.00 0.00 0.00 0.00 0.00
nan 0.10 0.26 0.37 0.05 0.00 0.08 0.03 0.03 0.11 0.84 0.42 0.39 0.15 0.00 0.00 0.01 0.00 0.00 0.00 0.00 0.00 0.00 0.00 0.00 0.00 0.00 0.00 0.00 0.00 0.00 0.00 0.00 0.00 0.00 0.00 0.00 0.00 0.00 0.00 0.00 0.00 0.00 0.00
0.00 0.69 0.03 0.02 0.01 0.03 0.07 0.05 0.00 0.00 0.01 0.21 0.04 0.06 0.00 0.00 0.03 0.00 0.00 0.00 0.00 0.00 0.00 0.00 0.00 0.00 0.00 0.00 0.00 0.00 0.00 0.00 0.00 0.00 0.00 0.00 0.00 0.00 0.01 0.04 0.06 0.05 0.05 0.00
0.01 0.76 0.14 0.58 0.02 0.03 0.11 0.03 0.04 0.04 0.03 0.02 0.00 0.00 0.00 0.00 0.00 0.00 0.00 0.00 0.00 0.00 0.00 0.00 0.00 0.00 0.00 0.00 0.00 0.00 0.00 0.00 0.00 0.00 0.00 0.00 0.10 0.14 0.16 0.14 0.10 0.07 0.06 0.05
0.09 0.50 1.32 1.74 0.14 0.12 0.88 0.16 0.00 0.00 0.00 0.00 0.05 0.09 0.15 0.07 0.03 0.03 0.02 0.01 0.01 0.00 0.00 0.00 0.00 0.00 0.00 0.00 0.00 0.00 0.00 0.03 0.13 0.18 0.27 0.24 0.20 0.18 0.15 0.11 0.10 0.08 0.07 0.07
0.12 0.69 1.24 2.12 1.21 2.41 0.32 0.00 0.00 0.02 0.06 0.11 0.19 0.29 0.16 0.05 0.01 0.01 0.01 0.00 0.00 0.00 0.00 0.00 0.00 0.00 0.00 0.00 0.00 0.00 0.04 0.09 0.12 0.22 0.32 0.23 0.15 0.26 0.14 0.12 0.12 0.09 0.07 0.09
0.01 0.01 1.13 2.16 2.00 0.15 0.01 0.00 0.00 0.02 0.03 0.09 0.15 0.08 0.03 0.00 0.00 0.00 0.00 0.00 0.00 0.00 0.00 0.00 0.00 0.00 0.00 0.00 0.00 0.06 0.07 0.06 0.07 0.08 0.13 0.14 0.21 0.30 0.16 0.36 0.16 0.12 0.20 0.15
0.00 0.00 0.08 1.32 2.16 1.60 0.03 0.00 0.00 0.00 0.29 0.24 0.45 0.28 0.16 0.03 0.08 0.02 0.00 0.00 0.00 0.00 0.00 0.00 0.00 0.00 0.00 0.00 0.00 0.07 0.07 0.10 0.09 0.08 0.08 0.09 0.19 0.43 0.34 0.19 0.29 0.34 0.32 0.30
0.73 1.25 1.50 1.69 2.08 0.86 0.21 0.11 0.01 0.72 0.66 0.30 0.20 0.19 0.13 0.14 0.05 0.02 0.00 0.00 0.00 0.01 0.01 0.01 0.00 0.00 0.00 0.03 0.08 0.08 0.07 0.10 0.12 0.15 0.15 0.17 0.19 0.45 0.28 0.33 0.28 0.40 0.44 0.23
0.16 0.97 2.11 1.42 1.45 1.63 0.03 0.02 0.13 0.16 0.07 0.13 0.05 0.01 0.03 0.01 0.00 0.00 0.00 0.00 0.00 0.00 0.00 0.00 0.00 0.00 0.00 0.09 0.13 0.12 0.09 0.11 0.17 0.22 0.24 0.30 0.49 0.46 0.46 0.84 0.51 0.70 0.61 0.60
0.58 0.21 0.93 0.43 0.59 0.02 0.01 0.06 0.02 0.02 0.19 0.09 0.03 0.02 0.01 0.01 0.00 0.00 0.00 0.00 0.00 0.00 0.00 0.00 0.17 0.15 0.00 0.19 0.22 0.26 0.16 0.19 0.26 0.52 0.73 0.72 0.64 0.64 0.64 0.95 0.60 0.85 0.71 0.84
0.07 0.00 0.23 0.29 0.01 0.01 0.01 0.00 0.00 0.01 0.02 0.01 0.02 0.02 0.02 0.01 0.01 0.00 0.00 0.01 0.00 0.11 0.16 0.18 0.25 0.28 0.27 0.24 0.29 0.34 0.28 0.30 1.02 1.02 0.53 0.42 0.54 0.43 0.54 0.75 0.88 1.26 0.96 0.76
0.08 0.08 0.16 0.21 0.00 0.00 0.00 0.00 0.00 0.00 0.00 0.00 0.00 0.00 0.00 0.00 0.00 0.00 0.12 0.14 0.09 0.13 0.14 0.21 0.27 0.26 0.24 0.21 0.23 0.36 0.34 0.42 0.65 0.69 0.37 0.53 0.76 0.86 0.51 0.48 0.80 0.67 0.44 0.96
0.00 0.00 0.03 0.25 0.00 0.00 0.00 0.00 0.00 0.00 0.00 0.04 0.04 0.05 0.06 0.07 0.06 0.07 0.11 0.08 0.10 0.15 0.16 0.21 0.23 0.21 0.22 0.28 0.32 0.45 0.62 0.61 0.63 0.37 0.57 0.56 0.57 0.49 0.44 0.45 0.43 nan nan nan
SL_Ratio
nan nan nan nan nan nan nan nan nan nan nan nan nan nan nan nan nan nan nan nan nan nan nan nan nan nan nan nan nan nan nan nan nan nan nan nan nan nan nan nan nan nan nan nan
nan nan nan nan nan nan nan nan nan nan nan nan nan nan nan nan nan nan nan nan nan nan nan nan nan nan nan nan nan nan nan nan nan nan nan nan nan nan nan nan nan nan nan nan
nan nan nan nan nan nan nan nan nan nan nan nan nan nan nan nan nan nan nan nan nan nan nan nan nan nan nan nan nan nan nan nan nan nan nan nan nan nan nan nan nan nan nan nan
nan nan nan nan nan nan nan nan nan nan nan nan nan nan nan nan nan nan nan nan nan nan nan nan nan nan nan nan nan nan nan nan nan nan nan nan nan nan nan nan nan nan nan nan
nan nan nan nan nan nan nan nan nan nan nan nan nan nan nan nan nan nan nan nan nan nan nan nan nan nan nan nan nan nan nan nan nan nan nan nan nan nan nan nan nan nan nan nan
nan nan nan nan nan nan nan nan nan nan nan 6.4 nan nan nan nan nan nan nan nan nan nan nan nan nan nan nan nan nan nan nan nan nan nan nan nan nan nan nan nan nan nan nan nan
nan nan nan nan nan nan nan nan 6.2 6.3 6.4 6.2 nan 6.1 nan nan nan nan nan nan nan nan nan nan nan nan nan nan nan nan nan nan nan nan nan nan nan nan nan nan nan nan nan nan
nan nan nan nan nan nan nan nan 6.0 7.4 6.6 5.8 6.6 6.2 4.5 nan nan nan nan nan nan nan nan nan nan nan nan nan nan nan nan nan nan nan nan nan nan nan nan nan nan nan nan nan
4.3 4.6 nan nan nan nan nan nan nan 6.4 7.2 6.4 nan nan nan nan nan nan nan nan nan nan nan nan nan nan nan nan nan nan nan nan nan nan nan nan nan nan nan nan nan nan nan nan
nan 5.9 nan nan nan nan nan nan 6.4 6.3 7.9 8.8 nan nan nan nan nan nan nan nan nan nan nan nan nan nan nan nan nan nan nan nan nan nan nan nan nan nan nan nan nan nan nan nan
nan 5.8 4.0 nan nan nan nan nan nan nan 6.2 7.5 7.5 6.2 nan nan nan nan nan nan nan nan nan nan nan nan nan nan nan nan nan nan nan nan nan nan nan nan nan nan nan nan nan nan
nan 4.4 5.9 nan nan nan nan nan nan 5.7 6.5 6.3 5.4 7.0 nan nan nan nan nan nan nan nan nan nan nan nan nan nan nan nan nan nan nan nan nan nan nan nan nan nan nan nan nan nan
nan 4.7 6.6 6.2 6.0 nan nan nan nan 5.0 5.3 6.7 7.9 7.0 nan nan 5.8 5.4 5.0 nan nan 5.0 5.0 nan nan nan nan nan nan nan nan nan nan nan nan nan nan nan nan nan nan nan nan nan
nan 4.5 5.0 6.6 5.8 nan 5.9 5.5 5.4 5.5 7.2 6.3 6.1 6.2 5.4 nan 5.9 5.4 nan nan nan nan nan nan nan nan nan nan nan nan nan nan nan nan nan nan nan nan nan nan nan nan nan nan
nan 5.1 4.1 4.3 4.8 5.2 6.0 6.1 5.6 10.0 6.2 8.3 5.5 5.5 4.5 5.0 6.0 5.7 nan nan nan nan nan nan nan nan nan nan nan nan nan nan nan nan nan nan nan nan 7.1 7.5 7.5 7.6 7.7 nan
5.6 6.1 5.1 6.1 3.4 3.3 4.9 4.2 3.9 4.3 5.0 5.2 nan nan nan nan nan 5.0 nan nan nan nan nan nan nan nan nan nan nan nan nan nan 6.7 7.5 8.5 7.5 7.7 8.2 8.2 8.0 8.1 7.8 7.8 7.7
4.9 5.0 6.5 8.1 4.7 5.0 8.0 5.6 nan nan nan nan 6.6 6.3 5.5 6.3 6.3 5.8 5.8 5.3 5.4 5.0 nan nan nan nan nan nan nan nan nan 6.8 8.1 9.0 9.2 9.3 8.8 9.9 9.9 8.9 8.8 8.7 8.3 8.0
5.7 5.6 5.9 8.4 7.7 10.0 6.3 nan nan 5.7 7.3 6.8 6.3 6.6 6.2 6.6 6.1 5.0 5.0 5.0 nan nan nan nan nan nan nan nan nan nan 6.9 7.7 8.4 9.2 9.8 9.9 9.9 9.9 9.9 9.9 9.8 9.1 8.6 8.8
5.0 5.0 9.1 8.8 9.0 6.0 5.1 nan 6.8 7.3 7.2 6.9 6.8 6.2 5.9 nan nan nan nan nan nan nan nan nan nan nan nan nan nan 8.2 8.4 8.3 8.6 9.0 9.5 9.6 9.9 9.9 10.1 10.1 10.6 10.8 10.2 9.4
nan nan 6.9 9.3 9.2 9.6 6.9 5.0 nan 5.0 8.4 6.7 6.7 6.8 6.4 5.7 8.6 6.0 nan nan nan nan nan nan nan nan nan nan nan 8.6 9.2 9.7 9.9 9.4 9.5 10.0 10.1 10.1 10.3 10.5 10.3 10.1 10.0 10.0
8.0 8.2 8.6 8.3 8.6 6.9 4.2 4.5 3.1 9.2 8.1 5.4 6.1 6.4 6.6 6.8 5.9 5.2 5.0 nan nan 5.6 6.0 5.8 6.5 6.5 nan 8.0 8.7 9.9 9.9 9.9 9.9 10.0 10.3 10.3 10.4 10.1 10.3 10.2 10.1 10.1 10.1 10.3
8.2 9.0 9.2 9.2 9.2 9.6 5.3 5.6 9.6 7.7 5.4 5.2 5.6 5.0 5.5 5.2 5.0 nan nan nan nan nan nan 5.0 5.0 5.6 5.0 8.9 9.5 9.5 9.8 10.1 10.1 10.2 10.4 10.4 10.3 10.2 10.2 10.0 10.3 10.1 10.1 10.1
8.7 7.8 9.4 8.4 7.9 4.6 4.8 5.0 3.8 4.9 5.4 5.3 5.6 5.4 5.2 5.4 nan nan nan nan nan nan nan 5.0 9.0 9.3 8.8 9.2 9.6 9.9 10.6 10.5 10.5 10.1 10.1 10.1 10.2 10.1 10.1 9.9 10.1 10.0 10.0 9.9
6.4 6.4 6.5 7.5 5.2 5.5 5.0 5.0 nan 4.6 5.3 4.9 5.6 6.0 5.5 5.6 5.6 5.0 6.7 7.2 5.0 8.9 8.8 8.9 9.1 9.6 9.4 9.4 9.8 9.9 10.2 10.3 9.9 9.9 10.2 10.6 10.4 9.7 10.5 10.1 10.0 9.8 10.0 10.0
5.2 4.4 5.6 6.8 4.2 nan nan nan nan nan 5.0 5.0 5.0 5.0 5.7 6.0 5.9 5.0 7.3 7.4 7.5 9.6 9.7 9.7 10.0 9.9 9.9 10.0 10.8 10.4 11.1 11.1 10.6 10.4 10.9 10.6 10.3 10.2 10.6 10.5 10.2 10.2 10.1 10.0
nan 5.0 8.1 8.6 nan nan nan nan nan nan 5.0 6.5 6.7 6.9 7.3 7.1 7.2 7.3 7.6 7.4 7.7 8.2 9.2 9.9 10.4 10.9 12.3 12.1 11.9 11.2 10.8 10.6 10.4 11.1 10.6 10.4 10.2 10.2 10.2 10.4 10.7 nan nan nan